This is the latest recevied weather packets stored in our database for station/object KC3QLX. If no packets are shown the sender has not sent any weather packets the latest 10 day(s).
| Time | Temp. | Humidity | Pressure | Rain* | Wind** | Luminosity | Snow |
|---|---|---|---|---|---|---|---|
| 1777584741 | 14.44° C | 65% | 1007.7 hPa | 0 mm | - | 28 W/m² | - |
| 1777584439 | 14.44° C | 69% | 1007.6 hPa | 0 mm | - | 34 W/m² | - |
| 1777584135 | 15° C | 67% | 1007.4 hPa | 0 mm | - | 42 W/m² | - |
| 1777583834 | 15° C | 62% | 1007.3 hPa | 0 mm | - | 35 W/m² | - |
| 1777583530 | 15.56° C | 62% | 1007.4 hPa | 0 mm | - | 58 W/m² | - |
| 1777583224 | 15.56° C | 59% | 1007.2 hPa | 0 mm | - | 120 W/m² | - |
| 1777582918 | 16.67° C | 60% | 1007 hPa | 0 mm | - | 157 W/m² | - |
| 1777582616 | 16.11° C | 64% | 1006.8 hPa | 0 mm | - | 129 W/m² | - |
| 1777582311 | 16.11° C | 58% | 1007.1 hPa | 0 mm | - | 518 W/m² | - |
| 1777582009 | 15° C | 66% | 1007.2 hPa | 0 mm | - | 239 W/m² | - |
| 1777581704 | 15° C | 68% | 1007 hPa | 0 mm | - | 130 W/m² | - |
| 1777581398 | 15° C | 61% | 1007 hPa | 0 mm | - | 119 W/m² | - |
| 1777581098 | 15° C | 62% | 1007.1 hPa | 0 mm | - | 105 W/m² | - |
| 1777580797 | 15° C | 61% | 1007.1 hPa | 0 mm | - | 147 W/m² | - |
| 1777580494 | 15° C | 68% | 1007.1 hPa | 0 mm | - | 157 W/m² | - |
| 1777580189 | 15° C | 67% | 1007.1 hPa | 0 mm | - | 110 W/m² | - |
| 1777579887 | 14.44° C | 63% | 1007 hPa | 0 mm | - | 144 W/m² | - |
| 1777579586 | 14.44° C | 67% | 1007.2 hPa | 0 mm | - | 110 W/m² | - |
| 1777579286 | 15° C | 67% | 1007.2 hPa | 0 mm | - | 98 W/m² | - |
| 1777578982 | 15° C | 62% | 1007.2 hPa | 0 mm | - | 150 W/m² | - |
| 1777578677 | 15.56° C | 60% | 1007.3 hPa | 0 mm | - | 132 W/m² | - |
| 1777578376 | 15.56° C | 60% | 1007.2 hPa | 0 mm | - | 219 W/m² | - |
| 1777578072 | 16.11° C | 61% | 1007.1 hPa | 0 mm | - | 208 W/m² | - |
| 1777577768 | 15.56° C | 66% | 1007.3 hPa | 0 mm | - | 367 W/m² | - |
| 1777577464 | 15° C | 65% | 1007.1 hPa | 0 mm | - | 429 W/m² | - |
* Rain latest hour (hover to see other rain measurements)
** Current wind speed in m/s (hover to see current wind gust speed)